Regional Weather Roundup
Issued by NWS

Home | Current Version | Previous Version | Graphics & Text | Print | Product List | Glossary On
Versions: 1 2 3 4 5 6 7 8 9 10 11 12 13 14 15 16 17 18 19 20 21 22 23 24 25 26 27 28 29 30 31 32 33 34 35 36 37 38 39 40 41 42 43 44 45 46 47 48 49 50
000
ASUS43 KLSX 310810
RWRMO

WEATHER SUMMARY FOR MISSOURI
NATIONAL WEATHER SERVICE SPRINGFIELD MO
300 AM CDT WED AUG 31 2016

NOTE: "FAIR" INDICATES FEW OR NO CLOUDS BELOW 12,000 FEET WITH NO
       SIGNIFICANT WEATHER AND/OR OBSTRUCTIONS TO VISIBILITY.
       CURRENT SKY AND/OR WEATHER CONDITIONS ARE NOT AVAILABLE FOR
       CHILLICOTHE AND FARMINGTON.

MOZ001>031-035>038-043-044-053-054-310900-
...NORTHERN AND WESTERN MISSOURI...

CITY           SKY/WX    TMP DP  RH WIND       PRES   REMARKS
KANSAS CTY INT LGT RAIN  72  70  93 W3        30.14R
KANSAS C DTWN  RAIN      75  72  90 N5        30.11S
LEE`S SUMMIT   CLOUDY    72  71  97 W5        30.13R
ST JOSEPH      LGT RAIN  72  70  93 CALM      30.14R
CHILLICOTHE      N/A     74  72  93 CALM      30.12S
KIRKSVILLE     CLOUDY    72  70  93 N6        30.11F

$$
MOZ066>068-077>081-088>096-101>105-310900-
...SOUTHWEST MISSOURI...

CITY           SKY/WX    TMP DP  RH WIND       PRES   REMARKS
SPRINGFIELD    PTCLDY    74  68  81 CALM      30.09S
JOPLIN         PTCLDY    72  71  97 NE5       30.09F
BRANSON        PTCLDY    70  70 100 CALM      30.10F FOG

$$
MOZ032>034-039>042-045>050-055>058-069>072-310900-
...CENTRAL MISSOURI...

CITY           SKY/WX    TMP DP  RH WIND       PRES   REMARKS
COLUMBIA       FOG       69  68  96 CALM      30.09F VSB 1/2
JEFFERSON CITY PTCLDY    70  69  97 CALM      30.08F
ROLLA          FOG       70  69  97 CALM      30.09F VSB 3/4
SEDALIA        CLOUDY    72  70  93 SW5       30.11F
WHITEMAN AFB   PTCLDY    71  71 100 S5        30.10S
OSAGE BEACH    CLOUDY    72  71  97 SW3       30.11S

$$
MOZ051-052-059>065-310900-
...EAST CENTRAL MISSOURI...

CITY           SKY/WX    TMP DP  RH WIND       PRES   REMARKS
ST LOUIS INTL  PTCLDY    73  69  87 W3        30.07F
SPIRIT OF STL  CLOUDY    70  70 100 CALM      30.06F FOG
ST CHARLES     CLOUDY    71  71 100 W5        30.06S FOG

$$
MOZ072>076-082>087-097>100-106>115-310900-
...SOUTH CENTRAL AND SOUTHEAST MISSOURI...

CITY           SKY/WX    TMP DP  RH WIND       PRES   REMARKS
CAPE GIRARDEAU CLEAR     70  68  93 NW3       30.05S
FARMINGTON     CLOUDY    69  68  96 CALM      30.09F FOG
POPLAR BLUFF   CLEAR     72  69  90 N5        30.04F
WEST PLAINS    CLEAR     70  67  90 NE5       30.11F

$$




USA.gov is the U.S. government's official web portal to all federal, state and local government web resources and services.